Theta_e
355 354 353 354 356 354 351 351 353 354 354 354 354 356 356 356 356 357 356 355 354 356 357 358 357 355 355 357 357 356 356 354 351 350 349 349 350 349 348 348 349 350
354 353 353 354 355 354 353 353 352 353 355 355 354 354 355 356 356 356 356 355 354 357 358 357 358 357 355 357 357 356 357 356 354 353 350 348 348 347 347 348 349 349
353 353 353 354 355 354 354 354 354 354 355 355 354 354 355 356 356 354 355 355 354 357 358 357 358 357 356 358 358 358 358 357 355 354 353 352 350 348 345 347 350 350
352 353 354 355 355 354 355 355 355 356 356 357 356 355 354 355 355 354 355 355 354 355 357 358 358 357 358 358 359 359 359 358 355 355 355 355 355 352 347 345 350 351
351 351 353 355 355 355 356 356 356 356 357 358 358 357 356 355 355 355 355 356 355 355 356 358 358 358 358 358 359 360 359 358 357 356 356 356 356 355 351 347 348 351
353 351 352 355 355 355 356 356 356 357 356 357 358 358 358 357 356 356 356 356 355 355 356 357 359 359 359 359 360 360 359 358 356 357 356 355 356 356 353 350 350 350
354 353 352 354 355 355 356 356 357 357 356 356 357 358 358 357 357 357 356 356 355 355 356 356 357 359 359 359 358 358 359 358 356 357 357 355 356 358 355 354 352 351
356 355 353 354 355 355 355 356 356 356 356 355 355 355 356 356 357 356 355 355 356 356 356 356 357 358 358 359 358 358 360 360 358 358 358 355 356 357 356 356 355 352
357 357 355 355 355 355 355 355 355 355 355 354 353 352 353 355 355 355 355 355 355 356 357 357 357 358 357 357 358 358 358 359 359 360 360 358 357 357 356 357 356 355
357 357 356 356 357 357 356 355 355 355 354 353 352 352 352 353 354 353 354 355 355 356 356 357 357 358 358 358 358 357 356 356 357 359 361 360 359 357 356 356 356 356
355 356 356 356 355 356 356 355 356 355 354 353 353 352 352 352 352 353 353 354 355 355 355 355 355 356 357 358 357 357 356 355 355 356 358 359 359 358 357 356 356 356
354 355 356 356 355 355 355 355 355 354 353 354 353 352 352 352 352 352 352 352 353 353 353 355 355 354 355 356 357 357 356 355 355 355 356 356 357 359 358 357 357 356
352 353 355 356 357 356 355 355 354 352 352 352 352 352 351 351 351 352 351 351 352 352 352 353 354 354 354 354 355 355 355 355 355 355 355 356 356 357 358 358 357 357
352 352 353 355 356 356 355 354 353 352 351 350 350 351 351 351 350 350 351 351 351 351 351 352 353 353 354 354 354 354 354 355 355 355 356 356 356 356 356 357 358 358
352 352 353 353 355 355 355 354 353 352 351 349 348 349 350 350 350 349 350 351 351 351 350 351 352 353 352 353 353 354 354 354 354 354 355 355 356 357 356 356 357 358
350 351 352 353 354 353 353 353 353 351 351 350 348 347 347 349 349 349 348 349 350 351 351 351 351 352 352 351 351 352 352 353 354 355 355 356 356 356 357 356 357 357
350 351 351 351 352 352 352 352 352 352 351 351 350 347 346 348 349 349 349 348 348 349 351 352 351 351 351 351 351 351 350 351 352 353 355 355 356 357 356 356 356 357
352 352 352 352 352 352 352 351 351 352 352 352 351 349 347 347 347 348 348 348 347 347 349 350 351 352 351 350 350 350 350 350 350 351 352 353 353 355 356 357 356 356
349 349 350 351 352 352 352 350 349 351 352 352 352 350 348 347 347 346 346 346 346 346 347 348 350 350 351 351 351 349 349 350 350 351 351 352 351 351 352 354 355 356
341 343 343 345 346 348 349 350 349 350 352 353 353 353 351 350 350 349 348 347 347 346 347 349 350 350 350 351 351 351 350 350 351 351 352 353 353 352 351 351 351 353
337 337 338 340 342 344 346 349 350 350 351 352 353 353 353 353 353 353 352 351 350 350 349 350 352 352 352 351 351 350 351 351 352 352 353 354 354 354 353 352 351 351
339 338 337 336 339 342 344 345 347 348 348 349 351 352 353 354 353 354 354 354 353 353 352 352 352 353 353 353 352 351 351 352 352 353 354 354 354 354 354 353 353 352
337 338 338 338 338 340 339 339 340 340 340 341 342 344 347 350 351 352 353 354 354 354 354 354 354 355 355 354 353 353 352 352 352 351 352 352 352 353 353 353 354 354
331 333 338 341 342 341 340 339 338 339 340 338 337 337 338 341 344 347 348 349 350 351 352 354 355 356 357 356 355 354 353 353 353 352 352 351 351 350 351 352 352 353
330 330 334 339 342 342 342 341 339 339 341 342 341 340 340 340 342 344 345 345 346 348 348 350 352 353 354 356 357 356 355 354 353 354 353 353 353 352 352 351 351 351
329 329 330 333 337 339 339 338 337 337 340 343 343 344 344 345 345 344 343 343 343 345 347 349 350 351 352 354 355 357 357 356 354 353 353 352 352 352 353 353 353 353
Wind_Speed
22 21 20 20 21 20 19 22 23 22 20 20 20 19 19 17 16 16 15 13 14 14 13 12 12 14 14 12 12 13 13 13 12 11 12 12 12 11 10 9 7 5
24 21 20 20 21 21 20 22 24 23 21 21 20 18 17 16 16 16 16 14 15 15 13 12 12 13 14 14 15 14 13 14 14 12 12 13 13 13 13 11 8 6
26 22 20 22 23 22 21 22 24 23 21 21 20 17 16 16 15 15 16 15 16 17 15 13 13 14 14 14 15 15 14 15 15 13 12 12 11 12 13 13 10 8
29 25 22 22 22 23 23 23 23 22 21 20 20 19 17 17 16 16 16 16 16 18 17 16 15 15 15 15 15 15 14 15 15 14 14 13 12 11 12 14 13 10
29 27 24 22 22 22 23 24 23 22 21 20 18 19 19 18 17 17 17 17 17 17 18 18 17 16 16 16 16 16 15 16 16 16 16 16 14 13 12 13 15 13
28 28 26 24 22 22 23 24 24 22 21 20 19 18 19 19 19 18 18 19 18 18 18 18 18 17 16 17 17 17 16 16 17 16 17 17 15 15 13 12 14 14
27 27 27 25 23 23 23 23 23 23 22 20 20 20 19 19 20 20 19 19 19 19 19 18 17 17 16 16 18 18 16 16 15 14 16 17 15 14 14 13 14 14
27 26 26 26 25 24 24 24 23 23 23 21 21 21 20 20 20 20 20 19 19 20 20 18 17 17 17 17 17 18 17 16 16 14 15 16 15 14 15 14 14 14
25 27 26 26 26 26 26 25 24 24 24 24 23 22 22 22 22 21 21 21 21 20 20 20 18 18 18 18 17 18 18 18 17 16 16 17 17 17 17 16 16 16
16 23 27 27 27 27 27 26 26 25 25 25 24 23 24 24 24 22 22 23 23 22 21 21 20 20 19 20 19 18 18 18 18 19 18 17 18 18 18 18 18 18
13 15 23 29 30 28 28 27 26 25 25 26 25 24 24 25 25 25 23 23 25 24 23 22 21 21 22 22 21 20 19 18 18 19 20 19 19 19 19 18 18 19
16 13 17 25 30 29 27 27 25 23 24 26 26 25 24 24 26 27 26 25 26 25 24 23 21 20 22 23 23 23 22 20 19 19 21 21 20 20 20 20 19 19
17 19 17 20 25 26 25 25 23 22 22 24 27 27 26 25 26 28 29 28 27 26 25 24 23 22 22 23 24 24 24 24 22 21 21 21 21 21 21 21 21 20
17 21 18 16 20 22 22 23 22 21 19 20 23 26 27 27 26 27 29 30 30 29 27 26 25 24 24 25 25 25 25 26 25 24 23 23 23 22 22 21 22 22
15 17 15 15 18 20 20 22 21 20 18 18 19 22 25 27 26 26 27 29 31 31 29 28 28 27 26 26 26 26 26 26 26 26 25 24 24 24 23 23 23 23
11 13 14 15 16 17 19 19 19 18 16 16 17 19 21 25 27 26 25 26 29 31 32 31 30 30 28 27 27 27 27 27 27 27 26 25 25 26 26 26 25 25
10 10 12 13 13 13 15 16 17 16 15 15 16 16 17 19 23 25 25 23 24 27 31 32 32 32 30 29 29 29 29 29 28 29 28 27 27 27 28 28 27 27
11 8 9 10 10 9 7 8 10 11 13 15 15 15 15 16 18 21 23 23 22 21 24 28 32 33 32 31 31 30 30 30 30 30 30 30 30 29 29 29 29 29
9 8 8 10 10 8 6 3 3 5 7 9 12 14 15 15 15 17 18 20 20 19 19 22 26 30 32 32 32 32 32 32 31 31 30 30 31 31 31 31 30 30
7 5 6 7 8 9 10 7 3 1 2 3 5 8 10 12 14 15 16 17 17 17 17 17 18 23 28 32 33 33 32 32 32 32 32 31 31 31 31 32 32 32
11 9 8 8 7 6 7 8 7 5 4 3 2 2 2 5 7 10 12 14 14 15 15 15 15 16 19 25 30 32 33 33 33 32 32 32 32 32 32 32 33 33
11 11 11 11 10 8 8 7 6 6 5 4 3 3 2 1 2 3 5 7 9 10 11 13 14 14 14 15 19 23 26 30 33 34 34 33 33 33 33 33 33 34
12 11 9 10 12 13 12 10 8 7 7 6 5 5 4 5 5 5 5 5 5 6 7 9 11 13 14 13 13 14 16 20 24 29 31 33 34 34 34 34 34 34
15 14 9 7 10 13 12 11 10 9 9 8 8 8 8 7 8 8 8 8 8 7 8 9 9 10 11 12 12 12 13 14 16 19 23 26 28 30 32 33 34 35
14 15 12 7 7 9 10 10 12 12 12 11 10 11 11 10 10 10 11 11 10 9 8 8 9 9 10 11 11 11 13 14 16 18 21 22 23 24 25 28 30 32
12 14 14 11 9 9 9 11 12 13 12 12 12 13 14 14 14 14 14 14 13 11 9 8 8 9 10 11 13 13 13 13 14 17 20 21 22 22 23 24 26 27
Wind_Direction
199 202 204 204 201 198 196 195 195 196 201 202 203 205 208 213 217 217 220 216 208 208 210 217 220 214 215 219 221 227 233 235 237 236 234 232 229 228 231 235 250 273
200 204 205 206 204 200 197 196 196 200 204 205 206 207 209 214 217 217 218 214 208 211 216 221 224 220 218 220 221 227 234 233 234 238 238 234 232 235 234 233 241 254
202 205 205 206 206 204 201 198 199 204 206 207 210 211 210 213 216 216 217 215 210 212 216 220 224 223 221 221 222 228 235 233 230 233 236 235 239 243 238 231 237 252
205 208 206 206 206 206 205 202 203 206 207 209 212 213 213 214 214 214 215 217 215 214 216 220 225 225 223 224 225 228 231 230 228 231 235 238 244 252 245 234 235 250
208 209 209 208 206 206 207 206 206 207 208 210 211 211 212 212 213 215 216 218 219 218 216 219 225 227 225 225 226 228 228 228 229 231 235 238 243 250 251 241 238 247
211 212 213 213 209 206 207 207 207 209 210 211 212 212 213 213 214 216 216 218 222 221 217 217 222 226 226 224 225 229 230 229 229 231 235 236 240 246 247 245 243 247
214 216 216 217 216 212 210 209 209 211 210 210 213 216 217 216 215 214 215 217 220 220 218 218 222 225 227 226 224 227 230 231 230 231 234 234 238 243 241 244 248 246
215 218 220 221 221 220 217 216 216 216 212 210 213 216 217 216 214 215 217 217 218 218 217 219 224 227 228 227 225 226 229 231 229 229 234 234 237 240 238 243 248 246
217 219 222 223 222 222 223 221 221 221 218 217 217 216 217 217 216 219 221 220 219 218 217 220 225 228 228 228 229 229 230 230 228 229 235 237 238 240 239 241 244 244
224 225 224 226 225 224 224 223 223 224 222 223 222 219 219 219 218 219 220 220 220 219 219 222 227 229 229 230 233 233 232 232 229 229 235 239 241 243 241 240 240 241
220 237 231 228 226 226 224 224 226 227 225 225 224 222 222 221 219 219 219 219 219 219 220 223 226 228 229 232 235 236 235 235 233 232 234 236 241 245 245 241 238 239
205 228 237 230 226 226 227 226 229 230 228 226 225 224 225 226 223 221 221 220 219 221 222 223 224 224 226 232 235 237 237 236 236 237 236 237 240 245 247 245 242 242
198 209 219 221 218 219 222 223 226 229 229 227 224 224 226 229 228 225 225 224 224 225 226 225 224 224 226 230 234 235 236 236 236 238 239 240 242 244 246 246 245 245
201 204 205 208 208 210 214 216 218 224 227 226 225 224 225 227 229 229 228 228 228 229 229 228 226 226 227 229 232 233 233 234 236 237 239 242 244 246 247 247 247 246
197 203 202 206 209 211 213 213 214 218 221 224 226 226 226 227 228 230 231 230 230 231 232 231 229 229 229 230 231 232 232 234 236 237 240 243 245 247 250 251 251 249
170 187 188 194 205 212 216 216 216 218 220 223 224 225 227 228 228 230 231 232 233 233 233 232 232 233 233 234 234 234 235 235 236 238 240 243 246 248 250 252 253 253
146 168 173 175 185 201 214 218 217 217 219 221 222 221 222 224 226 228 229 232 234 235 235 234 234 236 237 238 238 238 239 239 239 240 240 242 246 248 250 252 252 252
124 141 147 149 157 171 192 209 214 216 219 222 224 223 221 221 224 227 231 233 235 237 239 239 239 240 240 242 243 242 242 242 242 243 243 244 246 248 251 253 253 253
109 109 109 116 124 118 104 123 199 210 209 215 223 228 230 231 232 234 237 240 240 240 245 247 247 244 242 243 245 246 246 244 244 246 247 248 248 249 250 253 254 255
89 88 82 84 91 89 80 75 69 103 148 170 200 218 230 239 243 246 249 252 254 251 250 254 256 252 247 244 244 247 249 247 247 248 249 250 252 252 252 253 254 255
66 61 55 48 51 69 77 71 54 45 61 76 97 143 207 240 250 256 257 259 263 264 262 262 263 262 255 248 245 247 249 249 248 248 248 250 252 254 256 256 256 256
55 53 59 58 52 51 56 55 39 25 32 39 42 55 62 35 335 299 286 275 271 276 280 278 276 276 273 262 252 249 249 249 249 249 248 249 250 253 256 258 260 260
44 41 52 62 58 53 49 43 26 5 2 2 4 13 20 18 9 357 345 327 310 308 311 306 298 293 289 283 273 264 257 254 253 253 252 252 252 253 255 257 259 261
42 39 41 51 51 48 47 42 31 22 18 12 6 7 10 10 4 358 354 350 346 343 337 329 322 316 311 301 288 276 268 262 260 260 260 259 258 257 256 256 257 259
43 44 43 40 28 26 30 27 18 16 17 20 24 24 24 24 20 13 10 7 3 356 345 334 322 317 316 309 296 280 268 261 257 256 257 259 261 262 261 260 260 261
39 39 37 35 30 23 19 13 7 4 3 8 17 22 26 31 35 33 28 23 18 9 359 345 327 311 302 302 302 297 288 281 270 262 261 264 265 265 266 266 265 266